Regional Weather Roundup
Issued by NWS

Home | Current Version | Previous Version | Graphics & Text | Print | Product List | Glossary On
Versions: 1 2 3 4 5 6 7 8 9 10 11 12 13 14 15 16 17 18 19 20 21 22 23 24 25 26 27 28 29 30 31 32 33 34 35 36 37 38 39 40 41 42 43 44 45 46 47 48 49 50
000
ASUS43 KLSX 040310
RWRMO

WEATHER SUMMARY FOR MISSOURI
NATIONAL WEATHER SERVICE SPRINGFIELD MO
1000 PM CDT THU SEP 03 2015

NOTE: "FAIR" INDICATES FEW OR NO CLOUDS BELOW 12,000 FEET WITH NO
       SIGNIFICANT WEATHER AND/OR OBSTRUCTIONS TO VISIBILITY.
       CURRENT SKY AND/OR WEATHER CONDITIONS ARE NOT AVAILABLE FOR
       CHILLICOTHE AND FARMINGTON.

MOZ001>031-035>038-043-044-053-054-040400-
...NORTHERN AND WESTERN MISSOURI...

CITY           SKY/WX    TMP DP  RH WIND       PRES   REMARKS
KANSAS CTY INT CLEAR     73  67  81 S9        29.91R
KANSAS C DTWN  CLEAR     81  68  64 S7        29.90R
LEE`S SUMMIT   CLEAR     79  66  64 S7        29.93R
ST JOSEPH      CLEAR     77  69  76 S7        29.89R
CHILLICOTHE      N/A     77  70  79 S3        29.92R
KIRKSVILLE     CLEAR     75  67  76 S5        29.94R

$$
MOZ066>068-077>081-088>096-101>105-040400-
...SOUTHWEST MISSOURI...

CITY           SKY/WX    TMP DP  RH WIND       PRES   REMARKS
SPRINGFIELD    CLEAR     76  68  76 SE6       29.96R
JOPLIN         PTCLDY    77  70  79 E3        29.94R

$$
MOZ032>034-039>042-045>050-055>058-069>072-040400-
...CENTRAL MISSOURI...

CITY           SKY/WX    TMP DP  RH WIND       PRES   REMARKS
COLUMBIA       CLEAR     78  69  73 SE6       29.95R
JEFFERSON CITY CLEAR     77  71  82 SE5       29.93R
ROLLA          CLEAR     76  67  73 S7        29.96R
SEDALIA        CLEAR     76  69  79 S5        29.95R
WHITEMAN AFB   CLEAR     77  69  74 S5        29.92R
WARRENSBURG    CLEAR     75  68  78 S3        29.93R
OSAGE BEACH    CLEAR     77  66  69 S3        29.96R

$$
MOZ051-052-059>065-040400-
...EAST CENTRAL MISSOURI...

CITY           SKY/WX    TMP DP  RH WIND       PRES   REMARKS
ST LOUIS INTL  PTCLDY    84  67  56 CALM      29.96R
SPIRIT OF STL  CLEAR     74  72  93 CALM      29.94R
ST CHARLES     CLEAR     77  74  90 CALM      29.94R

$$
MOZ072>076-082>087-097>100-106>115-040400-
...SOUTH CENTRAL AND SOUTHEAST MISSOURI...

CITY           SKY/WX    TMP DP  RH WIND       PRES   REMARKS
CAPE GIRARDEAU CLEAR     72  70  93 CALM      29.96R
FARMINGTON     CLEAR     75  72  88 S7G26     30.01R
POPLAR BLUFF   CLEAR     74  71  91 CALM      29.95R
WEST PLAINS    CLEAR     73  69  87 CALM      30.01R

$$


USA.gov is the U.S. government's official web portal to all federal, state and local government web resources and services.